UAL2485 KEWR-KRDU

Flight info

Callsign UAL2485
Flight time 1h 2m
Altitude 38000
Route ELVAE NECCK WHITE Q409 VILLS NALES Q141 HOUKY TAQLE3
Aircraft B738/M-SDE2E3FGHIRWXY/LB1

Departure

Time 2026-05-05 13:47
Airport Newark Liberty International Airport (KEWR)

Arrival

Time 2026-05-05 14:50
Airport Raleigh-Durham International Airport (KRDU)
Time Latitude Longitude Altitude Speed Heading
2026-05-05 13:18 40.69338 -74.17228 22 ft 0 kts 12°
2026-05-05 13:35 40.69322 -74.17231 24 ft 4 kts 342°
2026-05-05 13:35 40.69308 -74.17213 23 ft 4 kts 275°
2026-05-05 13:36 40.69310 -74.17183 25 ft 1 kts 244°
2026-05-05 13:39 40.69301 -74.17200 21 ft 4 kts 219°
2026-05-05 13:40 40.69267 -74.17196 21 ft 6 kts 147°
2026-05-05 13:40 40.69240 -74.17146 22 ft 7 kts 113°
2026-05-05 13:40 40.69222 -74.17090 21 ft 7 kts 104°
2026-05-05 13:40 40.69243 -74.17027 22 ft 9 kts 42°
2026-05-05 13:41 40.69297 -74.16988 21 ft 9 kts 27°
2026-05-05 13:41 40.69351 -74.16953 21 ft 9 kts 26°
2026-05-05 13:41 40.69403 -74.16920 22 ft 8 kts 26°
2026-05-05 13:41 40.69454 -74.16887 22 ft 8 kts 26°
2026-05-05 13:42 40.69506 -74.16854 21 ft 9 kts 26°
2026-05-05 13:42 40.69574 -74.16810 21 ft 13 kts 26°
2026-05-05 13:42 40.69665 -74.16753 21 ft 16 kts 25°
2026-05-05 13:42 40.69765 -74.16689 20 ft 16 kts 26°
2026-05-05 13:43 40.69861 -74.16627 20 ft 15 kts 26°
2026-05-05 13:43 40.69954 -74.16569 20 ft 14 kts 26°
2026-05-05 13:43 40.70020 -74.16527 20 ft 0 kts 25°
2026-05-05 13:44 40.70022 -74.16526 20 ft 0 kts 25°
2026-05-05 13:44 40.70025 -74.16524 21 ft 1 kts 25°
2026-05-05 13:44 40.70030 -74.16521 21 ft 1 kts 25°
2026-05-05 13:44 40.70052 -74.16507 20 ft 8 kts 25°
2026-05-05 13:45 40.70110 -74.16477 20 ft 10 kts 11°
2026-05-05 13:45 40.70177 -74.16467 23 ft 9 kts
2026-05-05 13:45 40.70280 -74.16408 21 ft 9 kts 86°
2026-05-05 13:46 40.70282 -74.16326 21 ft 9 kts 90°
2026-05-05 13:46 40.70277 -74.16247 21 ft 9 kts 102°
2026-05-05 13:46 40.70227 -74.16237 20 ft 7 kts 204°
2026-05-05 13:46 40.70219 -74.16242 20 ft 6 kts 205°
2026-05-05 13:47 40.69991 -74.16388 18 ft 72 kts 206°
2026-05-05 13:47 40.69351 -74.16794 25 ft 130 kts 206°
2026-05-05 13:47 40.68462 -74.17376 373 ft 145 kts 206°
2026-05-05 13:47 40.67575 -74.17951 1101 ft 142 kts 214°
2026-05-05 13:48 40.66595 -74.18496 1461 ft 170 kts 189°
2026-05-05 13:48 40.65361 -74.18564 1844 ft 189 kts 207°
2026-05-05 13:48 40.64247 -74.19556 2110 ft 207 kts 220°
2026-05-05 13:48 40.62976 -74.20624 2536 ft 222 kts 216°
2026-05-05 13:49 40.61653 -74.21697 3222 ft 222 kts 216°
2026-05-05 13:49 40.60336 -74.22782 3858 ft 224 kts 216°
2026-05-05 13:49 40.58999 -74.23900 4391 ft 236 kts 216°
2026-05-05 13:49 40.57579 -74.25095 4960 ft 246 kts 216°
2026-05-05 13:50 40.56620 -74.25902 5438 ft 249 kts 215°
2026-05-05 13:50 40.55050 -74.26871 6289 ft 254 kts 194°
2026-05-05 13:50 40.53261 -74.26885 7129 ft 262 kts 175°
2026-05-05 13:50 40.51490 -74.26216 7955 ft 268 kts 166°
2026-05-05 13:51 40.49155 -74.25028 9057 ft 274 kts 165°
2026-05-05 13:51 40.47377 -74.24099 9897 ft 276 kts 165°
2026-05-05 13:51 40.45561 -74.23165 10474 ft 290 kts 166°
2026-05-05 13:51 40.44246 -74.22502 10589 ft 308 kts 166°
2026-05-05 13:52 40.42165 -74.21459 10790 ft 333 kts 165°
2026-05-05 13:52 40.39926 -74.20340 10965 ft 356 kts 165°
2026-05-05 13:52 40.36779 -74.18773 11534 ft 372 kts 165°
2026-05-05 13:52 40.35134 -74.17956 11967 ft 376 kts 165°
2026-05-05 13:53 40.32640 -74.16920 12657 ft 375 kts 174°
2026-05-05 13:53 40.30062 -74.16619 13336 ft 372 kts 187°
2026-05-05 13:53 40.27502 -74.16996 14021 ft 370 kts 197°
2026-05-05 13:53 40.24983 -74.17767 14655 ft 374 kts 198°
2026-05-05 13:54 40.22429 -74.18570 15278 ft 380 kts 198°
2026-05-05 13:54 40.19876 -74.19365 15950 ft 385 kts 198°
2026-05-05 13:54 40.17250 -74.20167 16587 ft 390 kts 198°
2026-05-05 13:54 40.14589 -74.20969 17226 ft 395 kts 198°
2026-05-05 13:55 40.11847 -74.21788 17859 ft 401 kts 197°
2026-05-05 13:55 40.09115 -74.22601 18445 ft 406 kts 197°
2026-05-05 13:55 40.06341 -74.23425 18997 ft 410 kts 197°
2026-05-05 13:55 40.03559 -74.24260 19575 ft 412 kts 199°
2026-05-05 13:56 40.00891 -74.25456 20115 ft 411 kts 208°
2026-05-05 13:56 39.98379 -74.27205 20699 ft 409 kts 217°
2026-05-05 13:56 39.96074 -74.29388 21254 ft 411 kts 220°
2026-05-05 13:56 39.93779 -74.31633 21766 ft 414 kts 220°
2026-05-05 13:57 39.91459 -74.33891 22269 ft 418 kts 220°
2026-05-05 13:57 39.89114 -74.36148 22776 ft 422 kts 219°
2026-05-05 13:57 39.86739 -74.38415 23308 ft 424 kts 219°
2026-05-05 13:57 39.84349 -74.40687 23740 ft 427 kts 219°
2026-05-05 13:58 39.81956 -74.42985 24146 ft 429 kts 221°
2026-05-05 13:58 39.79739 -74.45583 24556 ft 429 kts 227°
2026-05-05 13:58 39.77662 -74.48367 24967 ft 431 kts 228°
2026-05-05 13:58 39.75584 -74.51187 25364 ft 433 kts 229°
2026-05-05 13:59 39.71384 -74.56857 26119 ft 438 kts 228°
2026-05-05 13:59 39.69251 -74.59704 26493 ft 440 kts 228°
2026-05-05 14:00 39.64949 -74.65408 27209 ft 444 kts 228°
2026-05-05 14:00 39.62779 -74.68273 27554 ft 446 kts 228°
2026-05-05 14:00 39.60599 -74.71147 27936 ft 447 kts 228°
2026-05-05 14:00 39.58423 -74.74012 28409 ft 445 kts 228°
2026-05-05 14:01 39.56254 -74.76865 28931 ft 443 kts 228°
2026-05-05 14:01 39.54095 -74.79704 29444 ft 442 kts 228°
2026-05-05 14:01 39.51936 -74.82541 29932 ft 441 kts 228°
2026-05-05 14:01 39.49790 -74.85359 30349 ft 440 kts 228°
2026-05-05 14:02 39.47642 -74.88177 30703 ft 439 kts 227°
2026-05-05 14:02 39.45498 -74.90987 31111 ft 438 kts 227°
2026-05-05 14:02 39.43386 -74.93753 31478 ft 438 kts 227°
2026-05-05 14:02 39.41244 -74.96556 31818 ft 438 kts 227°
2026-05-05 14:03 39.39099 -74.99360 32172 ft 438 kts 227°
2026-05-05 14:03 39.36955 -75.02160 32555 ft 438 kts 227°
2026-05-05 14:03 39.34816 -75.04952 32921 ft 437 kts 227°
2026-05-05 14:03 39.32674 -75.07745 33248 ft 438 kts 227°
2026-05-05 14:04 39.30526 -75.10543 33545 ft 439 kts 227°
2026-05-05 14:04 39.28376 -75.13337 33905 ft 438 kts 227°
2026-05-05 14:04 39.26233 -75.16112 34296 ft 436 kts 227°
2026-05-05 14:04 39.24095 -75.18878 34598 ft 435 kts 227°
2026-05-05 14:05 39.21954 -75.21646 34847 ft 436 kts 227°
2026-05-05 14:05 39.19811 -75.24416 35082 ft 437 kts 227°
2026-05-05 14:05 39.17667 -75.27184 35385 ft 436 kts 227°
2026-05-05 14:05 39.15526 -75.29948 35679 ft 436 kts 227°
2026-05-05 14:06 39.13382 -75.32712 35949 ft 436 kts 227°
2026-05-05 14:06 39.11242 -75.35469 36219 ft 436 kts 227°
2026-05-05 14:06 39.09101 -75.38225 36499 ft 435 kts 227°
2026-05-05 14:06 39.06959 -75.40979 36784 ft 435 kts 227°
2026-05-05 14:07 39.04820 -75.43728 37038 ft 435 kts 227°
2026-05-05 14:07 39.02677 -75.46479 37273 ft 436 kts 227°
2026-05-05 14:07 39.00535 -75.49227 37541 ft 435 kts 227°
2026-05-05 14:07 38.98392 -75.51973 37829 ft 435 kts 227°
2026-05-05 14:08 38.96247 -75.54720 37973 ft 437 kts 227°
2026-05-05 14:08 38.94088 -75.57483 37974 ft 438 kts 227°
2026-05-05 14:08 38.89829 -75.63035 37968 ft 434 kts 232°
2026-05-05 14:09 38.86570 -75.69458 38011 ft 429 kts 242°
2026-05-05 14:09 38.83643 -75.76121 38006 ft 428 kts 242°
2026-05-05 14:10 38.80702 -75.82701 37995 ft 428 kts 241°
2026-05-05 14:10 38.77715 -75.89313 38013 ft 429 kts 241°
2026-05-05 14:11 38.74675 -75.95891 37992 ft 431 kts 236°
2026-05-05 14:11 38.70576 -76.01507 37991 ft 436 kts 220°
2026-05-05 14:12 38.65723 -76.06181 38018 ft 437 kts 219°
2026-05-05 14:12 38.60841 -76.10841 38016 ft 438 kts 219°
2026-05-05 14:13 38.55970 -76.15542 38017 ft 439 kts 219°
2026-05-05 14:13 38.51098 -76.20264 38006 ft 440 kts 219°
2026-05-05 14:14 38.46218 -76.24989 38014 ft 440 kts 219°
2026-05-05 14:14 38.41335 -76.29708 38009 ft 440 kts 219°
2026-05-05 14:15 38.36450 -76.34420 38011 ft 440 kts 219°
2026-05-05 14:15 38.31562 -76.39127 38005 ft 440 kts 219°
2026-05-05 14:16 38.26954 -76.44194 38024 ft 436 kts 229°
2026-05-05 14:16 38.22822 -76.49853 38017 ft 436 kts 229°
2026-05-05 14:17 38.18689 -76.55506 38022 ft 437 kts 229°
2026-05-05 14:17 38.14515 -76.61126 38007 ft 437 kts 229°
2026-05-05 14:18 38.10325 -76.66731 38006 ft 437 kts 229°
2026-05-05 14:18 38.06133 -76.72330 38025 ft 437 kts 229°
2026-05-05 14:19 38.01965 -76.77890 38019 ft 438 kts 229°
2026-05-05 14:19 37.97550 -76.83225 38020 ft 442 kts 218°
2026-05-05 14:20 37.92104 -76.86877 38026 ft 448 kts 204°
2026-05-05 14:20 37.86200 -76.89494 38046 ft 450 kts 202°
2026-05-05 14:21 37.80274 -76.92092 38051 ft 452 kts 203°
2026-05-05 14:21 37.74324 -76.94757 38051 ft 454 kts 203°
2026-05-05 14:22 37.68361 -76.97448 38045 ft 456 kts 203°
2026-05-05 14:22 37.62373 -77.00147 38049 ft 457 kts 203°
2026-05-05 14:23 37.56380 -77.02842 38047 ft 458 kts 203°
2026-05-05 14:23 37.50383 -77.05534 38054 ft 457 kts 203°
2026-05-05 14:24 37.44388 -77.08235 38042 ft 457 kts 203°
2026-05-05 14:24 37.38413 -77.10944 38053 ft 456 kts 203°
2026-05-05 14:25 37.32450 -77.13666 38049 ft 455 kts 206°
2026-05-05 14:25 37.26705 -77.16939 38062 ft 453 kts 209°
2026-05-05 14:26 37.23855 -77.18662 37620 ft 458 kts 209°
2026-05-05 14:26 37.20986 -77.20362 37098 ft 453 kts 208°
2026-05-05 14:26 37.18131 -77.22018 36502 ft 451 kts 208°
2026-05-05 14:26 37.15286 -77.23670 35876 ft 450 kts 211°
2026-05-05 14:27 37.12569 -77.25549 35361 ft 444 kts 215°
2026-05-05 14:27 37.09939 -77.27578 34681 ft 445 kts 216°
2026-05-05 14:27 37.07299 -77.29612 33994 ft 446 kts 215°
2026-05-05 14:27 37.04628 -77.31612 33179 ft 448 kts 214°
2026-05-05 14:28 37.01941 -77.33599 32412 ft 449 kts 214°
2026-05-05 14:28 36.99256 -77.35592 31634 ft 449 kts 214°
2026-05-05 14:28 36.96568 -77.37593 30830 ft 450 kts 214°
2026-05-05 14:28 36.93871 -77.39601 29974 ft 452 kts 214°
2026-05-05 14:29 36.91164 -77.41616 28997 ft 453 kts 214°
2026-05-05 14:29 36.88459 -77.43626 28051 ft 453 kts 214°
2026-05-05 14:29 36.85746 -77.45640 27075 ft 453 kts 214°
2026-05-05 14:29 36.83032 -77.47651 26067 ft 454 kts 214°
2026-05-05 14:30 36.80330 -77.49647 25389 ft 447 kts 214°
2026-05-05 14:30 36.77698 -77.51587 24672 ft 443 kts 214°
2026-05-05 14:30 36.75063 -77.53528 23973 ft 438 kts 214°
2026-05-05 14:30 36.72417 -77.55477 23174 ft 433 kts 214°
2026-05-05 14:31 36.69873 -77.57350 22419 ft 428 kts 214°
2026-05-05 14:31 36.67328 -77.59224 21705 ft 422 kts 214°
2026-05-05 14:31 36.64817 -77.61071 20987 ft 417 kts 214°
2026-05-05 14:31 36.62337 -77.62895 20279 ft 412 kts 213°
2026-05-05 14:32 36.59882 -77.64700 19613 ft 407 kts 213°
2026-05-05 14:32 36.57458 -77.66480 18911 ft 403 kts 213°
2026-05-05 14:32 36.55059 -77.68239 18227 ft 398 kts 213°
2026-05-05 14:32 36.52694 -77.69994 17470 ft 393 kts 215°
2026-05-05 14:33 36.50593 -77.72111 16724 ft 387 kts 225°
2026-05-05 14:33 36.48676 -77.74428 16021 ft 382 kts 226°
2026-05-05 14:33 36.46794 -77.76741 15341 ft 378 kts 226°
2026-05-05 14:33 36.44927 -77.79020 14676 ft 374 kts 225°
2026-05-05 14:34 36.43067 -77.81265 14021 ft 371 kts 225°
2026-05-05 14:34 36.41217 -77.83476 13300 ft 368 kts 224°
2026-05-05 14:34 36.39380 -77.85657 12640 ft 363 kts 224°
2026-05-05 14:34 36.37563 -77.87807 11987 ft 359 kts 224°
2026-05-05 14:35 36.35759 -77.89935 11289 ft 357 kts 223°
2026-05-05 14:35 36.33989 -77.92026 11081 ft 342 kts 224°
2026-05-05 14:35 36.32299 -77.94017 10902 ft 328 kts 223°
2026-05-05 14:35 36.30682 -77.95920 10764 ft 314 kts 223°
2026-05-05 14:36 36.29127 -77.97752 10638 ft 302 kts 223°
2026-05-05 14:36 36.27633 -77.99509 10502 ft 291 kts 223°
2026-05-05 14:36 36.26194 -78.01201 10392 ft 280 kts 223°
2026-05-05 14:36 36.24809 -78.02828 10277 ft 270 kts 223°
2026-05-05 14:37 36.23482 -78.04415 10180 ft 261 kts 227°
2026-05-05 14:37 36.22519 -78.06274 10070 ft 255 kts 243°
2026-05-05 14:37 36.21813 -78.08254 9874 ft 250 kts 243°
2026-05-05 14:37 36.21107 -78.10209 9625 ft 248 kts 243°
2026-05-05 14:38 36.20425 -78.12163 9341 ft 247 kts 245°
2026-05-05 14:38 36.19776 -78.14117 9071 ft 246 kts 245°
2026-05-05 14:38 36.19130 -78.16069 8809 ft 244 kts 245°
2026-05-05 14:38 36.18486 -78.18010 8545 ft 243 kts 245°
2026-05-05 14:39 36.17845 -78.19934 8287 ft 241 kts 244°
2026-05-05 14:39 36.17429 -78.21176 8114 ft 240 kts 244°
2026-05-05 14:39 36.16584 -78.23698 7768 ft 239 kts 244°
2026-05-05 14:39 36.15946 -78.25595 7499 ft 239 kts 244°
2026-05-05 14:40 36.15312 -78.27478 7229 ft 238 kts 244°
2026-05-05 14:40 36.14768 -78.29419 6959 ft 240 kts 252°
2026-05-05 14:40 36.14523 -78.30782 6789 ft 241 kts 255°
2026-05-05 14:40 36.14082 -78.33459 6522 ft 236 kts 254°
2026-05-05 14:41 36.13858 -78.34793 6416 ft 233 kts 254°
2026-05-05 14:41 36.13525 -78.36717 6300 ft 225 kts 254°
2026-05-05 14:41 36.13198 -78.38576 6208 ft 217 kts 253°
2026-05-05 14:41 36.12878 -78.40373 6119 ft 210 kts 254°
2026-05-05 14:42 36.12564 -78.42110 6010 ft 204 kts 251°
2026-05-05 14:42 36.11994 -78.43671 5918 ft 200 kts 233°
2026-05-05 14:42 36.10932 -78.45579 5819 ft 208 kts 234°
2026-05-05 14:42 36.10390 -78.46566 5772 ft 211 kts 234°
2026-05-05 14:43 36.09560 -78.48091 5642 ft 214 kts 234°
2026-05-05 14:43 36.08734 -78.49611 5538 ft 212 kts 234°
2026-05-05 14:43 36.07916 -78.51120 5446 ft 210 kts 235°
2026-05-05 14:43 36.07110 -78.52611 5328 ft 207 kts 234°
2026-05-05 14:44 36.06311 -78.54082 5226 ft 206 kts 234°
2026-05-05 14:44 36.05512 -78.55543 5122 ft 205 kts 235°
2026-05-05 14:44 36.04720 -78.57014 5009 ft 208 kts 235°
2026-05-05 14:44 36.03779 -78.58398 4726 ft 212 kts 224°
2026-05-05 14:45 36.02709 -78.59668 4470 ft 215 kts 225°
2026-05-05 14:45 36.01643 -78.60967 4186 ft 214 kts 225°
2026-05-05 14:45 36.00594 -78.62244 3906 ft 210 kts 225°
2026-05-05 14:45 35.99572 -78.63497 3631 ft 204 kts 226°
2026-05-05 14:46 35.98580 -78.64723 3369 ft 200 kts 227°
2026-05-05 14:46 35.97613 -78.65921 3106 ft 194 kts 227°
2026-05-05 14:46 35.96667 -78.67091 2846 ft 191 kts 227°
2026-05-05 14:46 35.95744 -78.68235 2601 ft 186 kts 227°
2026-05-05 14:47 35.94844 -78.69348 2349 ft 182 kts 227°
2026-05-05 14:47 35.93978 -78.70426 2123 ft 172 kts 226°
2026-05-05 14:47 35.93161 -78.71439 1914 ft 161 kts 225°
2026-05-05 14:47 35.92397 -78.72382 1701 ft 148 kts 225°
2026-05-05 14:48 35.91710 -78.73237 1514 ft 137 kts 224°
2026-05-05 14:48 35.91039 -78.74069 1311 ft 136 kts 225°
2026-05-05 14:48 35.90378 -78.74886 1138 ft 136 kts 224°
2026-05-05 14:48 35.89715 -78.75714 959 ft 138 kts 226°
2026-05-05 14:49 35.89043 -78.76557 782 ft 137 kts 225°
2026-05-05 14:49 35.88396 -78.77359 616 ft 131 kts 223°
2026-05-05 14:49 35.87748 -78.78149 453 ft 130 kts 224°
2026-05-05 14:49 35.87176 -78.78854 431 ft 97 kts 225°
2026-05-05 14:50 35.86804 -78.79313 430 ft 54 kts 225°
2026-05-05 14:50 35.86621 -78.79539 425 ft 30 kts 224°
2026-05-05 14:50 35.86496 -78.79706 434 ft 14 kts 249°
2026-05-05 14:50 35.86514 -78.79770 429 ft 0 kts 319°
2026-05-05 14:51 35.86516 -78.79772 430 ft 1 kts 319°
2026-05-05 14:51 35.86530 -78.79789 435 ft 5 kts 315°
2026-05-05 14:51 35.86562 -78.79796 428 ft 5 kts 24°
2026-05-05 14:51 35.86592 -78.79769 426 ft 5 kts 39°
2026-05-05 14:52 35.86620 -78.79735 433 ft 6 kts 46°
2026-05-05 14:52 35.86667 -78.79675 423 ft 12 kts 46°
2026-05-05 14:52 35.86728 -78.79598 432 ft 13 kts 46°
2026-05-05 14:52 35.86789 -78.79522 420 ft 12 kts 43°
2026-05-05 14:53 35.86849 -78.79450 433 ft 12 kts 45°
2026-05-05 14:53 35.86906 -78.79378 428 ft 12 kts 45°
2026-05-05 14:53 35.86963 -78.79308 425 ft 11 kts 45°
2026-05-05 14:53 35.87020 -78.79245 430 ft 11 kts 35°
2026-05-05 14:54 35.87084 -78.79190 428 ft 11 kts 35°
2026-05-05 14:54 35.87141 -78.79124 434 ft 11 kts 50°
2026-05-05 14:54 35.87193 -78.79056 426 ft 11 kts 41°
2026-05-05 14:54 35.87244 -78.78988 424 ft 11 kts 58°
2026-05-05 14:55 35.87284 -78.78912 429 ft 10 kts 57°
2026-05-05 14:55 35.87337 -78.78857 431 ft 10 kts 33°
2026-05-05 14:55 35.87392 -78.78816 418 ft 8 kts 18°
2026-05-05 14:55 35.87419 -78.78824 423 ft 2 kts 292°
2026-05-05 14:56 35.87424 -78.78845 425 ft 3 kts 283°
2026-05-05 14:56 35.87432 -78.78864 422 ft 2 kts 309°
2026-05-05 14:56 35.87438 -78.78871 424 ft 0 kts 311°
2026-05-05 15:06 35.87437 -78.78871 434 ft 0 kts 315°